GW5466 Weather Reports


time (UTC)temp
F
wind
direction
speed
knots
gust
knots
rain 1hr
in
rain 24hr
in
rain mn
in
humidity
%
barometer
mb
20260906180959 98 280 0.9 1.7 0.00 0.00 0.00 45 1013.2
20260906180719 98 61 0.9 3.5 0.00 0.00 0.00 45 1013.3
20260906180445 99 337 2.6 2.6 0.00 0.00 0.00 45 1013.6
20260906175429 99 25 0.0 1.7 0.00 0.00 0.00 44 1013.3
20260906175121 99 316 0.0 1.7 0.00 0.00 0.00 44 1013.4
20260906174359 99 268 0.9 3.5 0.00 0.00 0.00 44 1013.8
20260906173859 98 13 0.0 2.6 0.00 0.00 0.00 48 1013.8
20260906173329 98 269 0.0 2.6 0.00 0.00 0.00 46 1013.8
20260906173244 97 0 0.0 2.6 0.00 0.00 0.00 47 1014.1
20260906172259 97 235 1.7 2.6 0.00 0.00 0.00 47 1014.1
20260906171729 96 255 1.7 2.6 0.00 0.00 0.00 49 1014.1
20260906171159 97 340 0.9 1.7 0.00 0.00 0.00 48 1014.4
20260906170629 97 290 1.7 1.7 0.00 0.00 0.00 47 1014.2
20260906170129 97 307 0.9 1.7 0.00 0.00 0.00 47 1014.3
20260906165559 97 261 0.9 3.5 0.00 0.00 0.00 46 1014.5
20260906165059 98 0 0.9 2.6 0.00 0.00 0.00 47 1014.6
20260906164529 97 322 1.7 2.6 0.00 0.00 0.00 49 1014.3
20260906163959 97 338 0.0 3.5 0.00 0.00 0.00 51 1014.7
20260906163459 96 290 0.9 1.7 0.00 0.00 0.00 51 1014.7
20260906162959 97 309 0.0 1.7 0.00 0.00 0.00 49 1014.7
20260906162650 97 288 1.7 3.5 0.00 0.00 0.00 49 1014.6
20260906161859 96 230 0.9 4.3 0.00 0.00 0.00 50 1014.5
20260906161329 96 299 0.9 2.6 0.00 0.00 0.00 50 1014.5
20260906161317 95 256 0.9 1.7 0.00 0.00 0.00 53 1014.5
20260906160548 95 21 1.7 2.6 0.00 0.00 0.00 53 1014.6
20260906160049 95 75 0.9 2.6 0.00 0.00 0.00 52 1014.5
20260906155259 94 333 1.7 2.6 0.00 0.00 0.00 53 1014.6
20260906154759 94 356 2.6 2.6 0.00 0.00 0.00 54 1014.3
20260906154259 93 43 1.7 3.5 0.00 0.00 0.00 55 1014.5
20260906153729 93 325 3.5 3.5 0.00 0.00 0.00 53 1014.3
20260906153229 93 62 0.0 2.6 0.00 0.00 0.00 54 1014.2
20260906152659 93 82 1.7 2.6 0.00 0.00 0.00 54 1014.5
20260906152129 92 32 0.0 2.6 0.00 0.00 0.00 57 1014.4
20260906151629 92 351 1.7 3.5 0.00 0.00 0.00 57 1014.3
20260906151059 92 70 3.5 3.5 0.00 0.00 0.00 57 1014.2
20260906150529 91 28 2.6 5.2 0.00 0.00 0.00 56 1014.4
20260906150029 92 306 1.7 3.5 0.00 0.00 0.00 57 1014.3
20260906145529 91 322 0.0 1.7 0.00 0.00 0.00 57 1014.2
20260906145221 90 327 1.7 2.6 0.00 0.00 0.00 59 1014.7
20260906144459 90 339 1.7 3.5 0.00 0.00 0.00 57 1014.7
20260906143959 90 279 0.9 1.7 0.00 0.00 0.00 58 1014.6
20260906143429 90 4 2.6 3.5 0.00 0.00 0.00 58 1014.4
20260906142929 89 70 0.9 4.3 0.00 0.00 0.00 59 1014.7
20260906142620 89 356 0.9 2.6 0.00 0.00 0.00 60 1014.7
20260906142048 88 322 0.0 3.5 0.00 0.00 0.00 61 1014.8
20260906141259 88 86 0.0 2.6 0.00 0.00 0.00 60 1014.7
20260906140759 88 232 0.9 1.7 0.00 0.00 0.00 62 1014.5
20260906140259 87 6 0.0 3.5 0.00 0.00 0.00 62 1014.4
20260906135759 87 338 0.0 2.6 0.00 0.00 0.00 62 1014.4
20260906135448 86 3 0.0 3.5 0.00 0.00 0.00 64 1014.4
20260906134729 85 24 1.7 4.3 0.00 0.00 0.00 64 1014.4
20260906134229 85 56 0.9 2.6 0.00 0.00 0.00 66 1014.6
20260906133729 85 68 2.6 2.6 0.00 0.00 0.00 65 1014.6
20260906133229 84 35 1.7 3.5 0.00 0.00 0.00 67 1014.3
20260906132700 83 327 1.7 2.6 0.00 0.00 0.00 68 1014.3
20260906132348 82 291 1.7 2.6 0.00 0.00 0.00 69 1014.1
20260906131600 81 102 1.7 2.6 0.00 0.00 0.00 71 1014.4
20260906131322 80 43 0.9 1.7 0.00 0.00 0.00 72 1014.2
20260906130600 80 155 0.0 1.7 0.00 0.00 0.00 73 1014.1
20260906130100 80 298 0.9 1.7 0.00 0.00 0.00 74 1014.2
20260906125530 80 346 1.7 1.7 0.00 0.00 0.00 74 1014.3
20260906125030 80 83 0.0 2.6 0.00 0.00 0.00 73 1013.9
20260906124459 79 321 0.9 3.5 0.00 0.00 0.00 73 1013.7
20260906124000 79 313 1.7 2.6 0.00 0.00 0.00 74 1013.8
20260906123500 79 107 0.9 2.6 0.00 0.00 0.00 74 1013.8
20260906123000 79 131 1.7 2.6 0.00 0.00 0.00 73 1013.7
20260906122430 79 278 1.7 2.6 0.00 0.00 0.00 74 1013.7
20260906121930 79 66 0.0 2.6 0.00 0.00 0.00 74 1013.6
20260906121430 79 56 2.6 2.6 0.00 0.00 0.00 74 1013.7
20260906120900 79 355 0.9 2.6 0.00 0.00 0.00 73 1013.4
20260906120400 79 36 0.9 2.6 0.00 0.00 0.00 73 1013.7
20260906115900 79 28 1.7 3.5 0.00 0.00 0.00 73 1013.5
20260906115400 78 354 2.6 5.2 0.00 0.00 0.00 73 1013.1
20260906114830 78 336 1.7 1.7 0.00 0.00 0.00 73 1013.3
20260906114300 78 359 0.9 2.6 0.00 0.00 0.00 73 1013.4
20260906113729 78 74 2.6 2.6 0.00 0.00 0.00 74 1013.2
20260906113200 78 180 0.0 2.6 0.00 0.00 0.00 73 1013.4
20260906112630 78 355 0.0 1.7 0.00 0.00 0.00 74 1013.2
20260906112130 78 156 2.6 2.6 0.00 0.00 0.00 73 1013.3
20260906111820 78 66 1.7 3.5 0.00 0.00 0.00 73 1013.1
20260906111100 79 343 1.7 1.7 0.00 0.00 0.00 73 1013.3
20260906110530 79 19 3.5 3.5 0.00 0.00 0.00 73 1013.1
20260906110029 79 347 1.7 5.2 0.00 0.00 0.00 73 1013.0
20260906105529 79 304 0.9 2.6 0.00 0.00 0.00 73 1013.1
20260906105000 78 68 3.5 3.5 0.00 0.00 0.00 74 1013.1
20260906104500 78 35 0.9 2.6 0.00 0.00 0.00 73 1013.0
20260906103959 78 135 0.9 3.5 0.00 0.00 0.00 73 1012.9
20260906103430 79 223 0.9 2.6 0.00 0.00 0.00 73 1012.9
20260906103151 79 63 0.9 1.7 0.00 0.00 0.00 73 1012.9
20260906102400 79 348 0.9 1.7 0.00 0.00 0.00 72 1012.8
20260906101900 79 170 1.7 1.7 0.00 0.00 0.00 72 1012.9
20260906101330 79 310 1.7 2.6 0.00 0.00 0.00 72 1012.8
20260906100830 78 15 2.6 3.5 0.00 0.00 0.00 72 1012.8
20260906100330 78 63 0.9 2.6 0.00 0.00 0.00 73 1012.8
20260906095830 78 341 0.0 2.6 0.00 0.00 0.00 73 1012.7
20260906095552 78 346 1.7 3.5 0.00 0.00 0.00 73 1012.6
20260906094829 78 5 1.7 2.6 0.00 0.00 0.00 73 1012.7
20260906094300 78 2 0.0 1.7 0.00 0.00 0.00 74 1012.6
20260906093759 78 44 0.0 0.0 0.00 0.00 0.00 75 1012.5
20260906093300 78 36 0.0 0.0 0.00 0.00 0.00 75 1012.6
20260906092730 78 13 0.0 1.7 0.00 0.00 0.00 76 1013.0
20260906092419 77 320 0.0 0.9 0.00 0.00 0.00 76 1012.8
20260906091630 77 23 0.0 0.9 0.00 0.00 0.00 77 1012.6
20260906091349 77 15 0.0 0.9 0.00 0.00 0.00 78 1012.8
20260906090630 77 325 0.0 0.9 0.00 0.00 0.00 78 1012.7
20260906090130 77 37 0.0 0.0 0.00 0.00 0.00 79 1012.3
20260906085629 77 27 0.0 0.9 0.00 0.00 0.00 78 1012.6
20260906085059 77 25 0.0 0.9 0.00 0.00 0.00 78 1012.6
20260906084600 77 29 0.0 0.9 0.00 0.00 0.00 77 1012.6
20260906084030 77 22 0.0 0.9 0.00 0.00 0.00 77 1012.5
20260906083459 78 44 0.0 0.9 0.00 0.00 0.00 77 1012.4
20260906082930 78 32 0.0 0.0 0.00 0.00 0.00 77 1012.4
20260906082400 78 44 0.0 0.9 0.00 0.00 0.00 76 1012.4
20260906081900 78 44 0.0 0.0 0.00 0.00 0.00 76 1012.4
20260906081330 78 44 0.0 0.9 0.00 0.00 0.00 75 1012.5
20260906080800 79 315 0.0 0.0 0.00 0.00 0.00 73 1012.1
20260906080259 79 309 0.0 0.0 0.00 0.00 0.00 74 1012.3
20260906075730 79 31 0.0 0.9 0.00 0.00 0.00 74 1012.3
20260906075421 79 43 0.9 0.9 0.00 0.00 0.00 72 1012.4
20260906074629 80 315 0.0 0.0 0.00 0.00 0.00 71 1012.1
20260906074322 80 326 0.0 0.0 0.00 0.00 0.00 70 1012.3
20260906073818 80 0 0.0 0.0 0.00 0.00 0.00 70 1012.0
20260906073100 80 333 0.0 0.0 0.00 0.00 0.00 69 1012.2
20260906072530 80 44 0.0 0.0 0.00 0.00 0.00 69 1012.2
20260906072000 81 44 0.0 0.0 0.00 0.00 0.00 69 1012.5
20260906071500 81 44 0.0 0.0 0.00 0.00 0.00 69 1012.2
20260906071000 81 333 0.0 0.0 0.00 0.00 0.00 69 1012.1
20260906070430 81 17 0.0 0.9 0.00 0.00 0.00 69 1012.3
20260906065929 81 25 0.0 0.0 0.00 0.00 0.00 69 1012.1
20260906065429 81 22 0.0 0.0 0.00 0.00 0.00 69 1012.4
20260906064900 81 336 0.0 0.0 0.00 0.00 0.00 68 1012.4
20260906064330 81 50 0.0 0.0 0.00 0.00 0.00 68 1012.3
20260906063800 81 347 0.0 0.0 0.00 0.00 0.00 68 1012.2
20260906063230 81 309 0.0 0.0 0.00 0.00 0.00 67 1012.6
20260906062922 82 315 0.0 0.0 0.00 0.00 0.00 67 1012.3
20260906062200 82 33 0.0 0.0 0.00 0.00 0.00 66 1012.7
20260906061700 82 45 0.0 0.9 0.00 0.00 0.00 66 1012.5
20260906061421 82 322 0.0 0.9 0.00 0.00 0.00 65 1012.7
20260906060630 82 333 0.0 0.9 0.00 0.00 0.00 65 1012.6
20260906060130 83 0 0.0 0.9 0.00 0.00 0.00 65 1012.4
20260906055822 83 22 0.0 0.9 0.00 0.00 0.00 64 1012.4
20260906055030 83 338 0.9 0.9 0.00 0.00 0.00 64 1012.5
20260906054751 83 326 0.0 0.9 0.00 0.00 0.00 65 1012.7
20260906053959 83 333 0.0 0.9 0.00 0.00 0.00 64 1012.8
20260906053652 83 322 0.0 0.0 0.00 0.00 0.00 64 1012.7
20260906052929 83 44 0.0 0.0 0.00 0.00 0.00 64 1012.6
20260906052400 83 25 0.0 0.9 0.00 0.00 0.00 64 1012.8
20260906051830 83 316 0.0 0.0 0.00 0.00 0.00 65 1012.8
20260906051300 83 315 0.0 0.0 0.00 0.00 0.00 64 1012.6
20260906050800 83 35 0.0 0.9 0.00 0.00 0.00 65 1012.6
20260906050519 83 315 0.0 0.9 0.00 0.00 0.00 65 1012.8
20260906045730 83 335 0.0 0.9 0.00 0.00 0.00 65 1012.5
20260906045159 83 333 0.0 0.9 0.00 0.00 0.00 65 1012.7
20260906044629 84 309 0.0 0.9 0.00 0.00 0.00 65 1012.7
20260906044130 84 32 0.0 0.0 0.00 0.00 0.00 65 1012.8
20260906043850 84 1 0.0 0.9 0.00 0.00 0.00 65 1012.9
20260906043100 84 339 0.0 0.0 0.00 0.00 0.00 64 1012.9
20260906042529 84 25 0.0 0.9 0.00 0.00 0.00 65 1012.8
20260906042029 84 343 0.0 0.9 0.00 0.00 0.00 66 1012.7
20260906041500 84 19 0.0 0.0 0.00 0.00 0.00 66 1012.6
20260906041413 84 354 0.0 0.0 0.00 0.00 0.00 66 1012.5
20260906040430 84 343 0.0 0.0 0.00 0.00 0.00 66 1012.6
20260906040150 84 293 0.0 0.0 0.00 0.00 0.00 65 1012.5
20260906035429 84 315 0.0 0.0 0.00 0.00 0.00 65 1012.4
20260906034929 85 6 0.0 0.0 0.00 0.00 0.00 65 1012.5
20260906034649 85 333 0.0 0.0 0.00 0.00 0.00 64 1012.4
20260906033929 85 15 0.0 0.9 0.00 0.00 0.00 64 1012.4
20260906033400 85 44 0.0 0.9 0.00 0.00 0.00 63 1012.4
20260906032900 85 336 0.0 0.0 0.00 0.00 0.00 63 1012.4
20260906032330 85 326 0.0 1.7 0.00 0.00 0.00 64 1012.4
20260906031800 85 35 0.9 0.9 0.00 0.00 0.00 65 1012.2
20260906031452 85 343 0.0 0.0 0.00 0.00 0.00 64 1012.3
20260906030730 85 345 0.0 0.0 0.00 0.00 0.00 64 1012.2
20260906030229 85 322 0.0 0.0 0.00 0.00 0.00 64 1012.2
20260906025659 85 333 0.0 0.9 0.00 0.00 0.00 63 1012.2
20260906025129 85 25 0.0 0.9 0.00 0.00 0.00 63 1011.7
20260906024630 85 356 0.0 1.7 0.00 0.00 0.00 63 1012.0
20260906024130 85 25 0.0 0.9 0.00 0.00 0.00 64 1011.7
20260906023559 85 339 0.0 1.7 0.00 0.00 0.00 64 1012.0
20260906023100 85 335 0.0 0.9 0.00 0.00 0.00 64 1011.6
20260906022530 86 8 0.0 0.9 0.00 0.00 0.00 64 1011.7
20260906022029 86 15 0.0 0.0 0.00 0.00 0.00 64 1011.4
20260906021530 86 333 0.0 0.9 0.00 0.00 0.00 63 1011.6
20260906021029 86 10 0.0 0.9 0.00 0.00 0.00 63 1011.5
20260906020530 86 33 0.0 1.7 0.00 0.00 0.00 63 1011.2
20260906020030 87 37 0.0 0.0 0.00 0.00 0.00 63 1011.3
20260906015530 87 315 0.0 0.9 0.00 0.00 0.00 62 1011.6
20260906014959 87 344 0.0 0.9 0.00 0.00 0.00 61 1011.4
20260906014459 87 343 0.0 0.9 0.00 0.00 0.00 61 1011.2
20260906013930 87 338 0.9 0.9 0.00 0.00 0.00 61 1011.4
20260906013429 87 333 0.0 0.9 0.00 0.00 0.00 62 1011.5
20260906012929 87 331 0.9 0.9 0.00 0.00 0.00 61 1011.2
20260906012400 88 327 0.9 0.9 0.00 0.00 0.00 60 1011.3
20260906011900 88 315 0.0 0.9 0.00 0.00 0.00 59 1011.2
20260906011329 89 315 0.0 0.9 0.00 0.00 0.00 58 1011.3
20260906010829 89 25 0.0 0.9 0.00 0.00 0.00 58 1011.4
20260906010330 89 316 0.0 0.9 0.00 0.00 0.00 57 1011.4
20260906005759 89 343 0.0 1.7 0.00 0.00 0.00 57 1011.2
20260906005300 90 304 0.9 0.9 0.00 0.00 0.00 56 1011.3
20260906004948 90 297 0.0 0.9 0.00 0.00 0.00 55 1011.1
20260906004230 91 309 0.0 0.0 0.00 0.00 0.00 55 1011.1
20260906003659 91 321 0.0 1.7 0.00 0.00 0.00 54 1011.2
20260906003159 91 326 0.0 1.7 0.00 0.00 0.00 54 1011.4
20260906002850 92 297 0.0 0.9 0.00 0.00 0.00 53 1011.3
20260906002129 92 315 0.0 1.7 0.00 0.00 0.00 53 1011.3
20260906001629 92 330 0.0 1.7 0.00 0.00 0.00 52 1011.1
20260906001059 92 333 0.0 1.7 0.00 0.00 0.00 52 1011.1
20260906000559 93 322 0.0 0.9 0.00 0.00 0.00 51 1010.9
20260906000059 93 336 0.0 1.7 0.00 0.00 0.00 51 1011.3
20260905235559 93 338 0.0 1.7 0.00 0.00 0.00 51 1011.0
20260905235029 94 329 0.0 0.9 0.00 0.00 0.00 50 1010.9
20260905234529 94 319 1.7 1.7 0.00 0.00 0.00 49 1011.0
20260905234030 94 359 1.7 1.7 0.00 0.00 0.00 48 1010.8
20260905233530 95 321 0.9 1.7 0.00 0.00 0.00 48 1011.3
20260905233444 95 352 2.6 3.5 0.00 0.00 0.00 48 1010.8
20260905232430 95 337 1.7 2.6 0.00 0.00 0.00 48 1010.7
20260905232120 95 321 0.0 1.7 0.00 0.00 0.00 47 1010.9
20260905231621 95 329 1.7 2.6 0.00 0.00 0.00 46 1010.8
20260905230859 96 341 0.0 3.5 0.00 0.00 0.00 46 1010.9
20260905230359 96 345 0.9 2.6 0.00 0.00 0.00 46 1010.9
20260905225829 97 324 3.5 4.3 0.00 0.00 0.00 44 1010.9
20260905225330 98 301 2.6 3.5 0.00 0.00 0.00 42 1010.9
20260905224829 99 0 0.0 1.7 0.00 0.00 0.00 36 1010.7
20260905224300 99 269 0.9 0.9 0.00 0.00 0.00 37 1010.6
20260905223759 99 352 0.9 1.7 0.00 0.00 0.00 35 1010.8
20260905223259 100 312 0.0 2.6 0.00 0.00 0.00 36 1010.7
20260905222759 100 281 1.7 1.7 0.00 0.00 0.00 38 1010.6
20260905222521 101 69 1.7 5.2 0.00 0.00 0.00 35 1010.7
20260905221759 101 311 0.9 2.6 0.00 0.00 0.00 34 1010.7
20260905221259 101 351 0.0 2.6 0.00 0.00 0.00 34 1011.0
20260905221020 101 306 0.9 1.7 0.00 0.00 0.00 33 1010.6
20260905220259 101 349 1.7 1.7 0.00 0.00 0.00 34 1010.9
20260905215729 101 326 0.9 1.7 0.00 0.00 0.00 35 1011.0
20260905215229 101 334 1.7 3.5 0.00 0.00 0.00 34 1011.1
20260905214918 101 321 0.9 1.7 0.00 0.00 0.00 35 1011.0
20260905214129 100 342 0.9 1.7 0.00 0.00 0.00 37 1011.3
20260905213559 101 310 0.9 2.6 0.00 0.00 0.00 36 1011.1
20260905213059 101 329 1.7 2.6 0.00 0.00 0.00 35 1011.2
20260905212748 101 307 1.7 2.6 0.00 0.00 0.00 35 1011.1
20260905212029 101 260 0.9 1.7 0.00 0.00 0.00 36 1011.3
20260905211459 100 311 1.7 1.7 0.00 0.00 0.00 36 1011.5
20260905210959 100 14 0.0 3.5 0.00 0.00 0.00 36 1011.4
20260905210459 100 255 0.0 1.7 0.00 0.00 0.00 38 1011.6
20260905205959 100 298 0.9 2.6 0.00 0.00 0.00 39 1011.5
20260905205429 99 261 0.0 1.7 0.00 0.00 0.00 40 1011.7
20260905204929 100 334 0.9 1.7 0.00 0.00 0.00 38 1011.5
20260905204359 100 294 0.0 1.7 0.00 0.00 0.00 36 1011.7
20260905203859 100 343 0.0 1.7 0.00 0.00 0.00 36 1011.8
20260905203551 99 44 0.0 2.6 0.00 0.00 0.00 36 1012.0
20260905202759 98 266 1.7 1.7 0.00 0.00 0.00 38 1011.9
20260905202259 98 260 1.7 1.7 0.00 0.00 0.00 39 1012.2
20260905201759 100 299 1.7 1.7 0.00 0.00 0.00 38 1012.2
20260905201743 101 296 0.9 2.6 0.00 0.00 0.00 37 1012.0
20260905200729 102 295 1.7 2.6 0.00 0.00 0.00 36 1012.2
20260905200451 103 271 2.6 2.6 0.00 0.00 0.00 37 1012.3
20260905195729 103 287 0.9 4.3 0.00 0.00 0.00 35 1012.0
20260905195159 102 2 0.9 0.9 0.00 0.00 0.00 36 1012.2
20260905194849 101 17 0.9 2.6 0.00 0.00 0.00 36 1012.3
20260905194059 101 225 3.5 3.5 0.00 0.00 0.00 37 1012.4
20260905193529 101 341 0.9 2.6 0.00 0.00 0.00 37 1012.5
20260905193029 101 295 0.9 2.6 0.00 0.00 0.00 37 1012.5
20260905192459 101 221 1.7 2.6 0.00 0.00 0.00 39 1012.6
20260905191959 101 333 1.7 3.5 0.00 0.00 0.00 37 1012.6
20260905191429 100 349 1.7 2.6 0.00 0.00 0.00 38 1012.4
20260905190929 100 19 1.7 2.6 0.00 0.00 0.00 43 1012.5
20260905190429 99 24 0.0 2.6 0.00 0.00 0.00 38 1012.6
20260905185929 99 323 0.9 2.6 0.00 0.00 0.00 38 1012.8
20260905185429 100 339 1.7 1.7 0.00 0.00 0.00 40 1012.9
20260905184929 101 293 0.0 2.6 0.00 0.00 0.00 39 1013.1
20260905184359 101 0 0.9 2.6 0.00 0.00 0.00 39 1012.8
20260905183859 100 232 0.9 2.6 0.00 0.00 0.00 42 1012.7
20260905183359 99 335 1.7 1.7 0.00 0.00 0.00 40 1013.0
20260905182859 98 316 1.7 1.7 0.00 0.00 0.00 44 1013.0
20260905182329 98 282 1.7 3.5 0.00 0.00 0.00 41 1013.2
20260905181759 100 294 2.6 2.6 0.00 0.00 0.00 40 1013.5